COSMOS 1408 DEB

Satellite information

Favourite Embed

Satellite Type and Status

DEBRISIN ORBIT

Key statistics

Satellite COSMOS 1408 DEB at a glance.

Uptime

15635

Days in orbit

Revolutions

≈ 14.9

Per day

Orbit

LEO

Low Earth Orbit

Inclination

82.2

Latest

Satellite identification and parameters

Extended collection of information and parameters for COSMOS 1408 DEB.

Object identification

Identified? True

Debris? True

Object name: COSMOS 1408 DEB

International designator: 1982-092ADS

Object number (NORAD): 50404

Object ID (CCSDS): 50404

Country: COMMONWEALTH OF INDEPENDENT STATES (CIS)

Current information (Y/N): Y

RCS size: SMALL

Orbital parameters

Period: 96.775 minutes

Inclination: 82.2207 deg

SMA: 6982.367 km

Apoapsis: 783.741 km

Periapsis: 424.723 km

RAAN: 13.8584 deg

Eccentricy: 0.0257089

Argument of periapsis: 12.4989 deg

Mean anomaly: 348.2439 deg

Mean motion: 14.8798568 rev/day

Mean motion (dot): 0.00033377 rev/day2

B* drag term: 0.0019492 1/REarth

Two-line elements (TLE)

Creation date: July 6, 2025, 11:06 p.m.

Reference frame: TEME

Reference center: EARTH

Epoch: July 6, 2025, 2:07 p.m. UTC

TLE line 0: 0 COSMOS 1408 DEB

TLE line 1: 1 50404U 82092ADS 25187.58875887 .00033377 00000-0 19492-2 0 9993

TLE line 2: 2 50404 82.2207 13.8584 0257089 12.4989 348.2439 14.87985680188117

Live tracking on map

Real-time ground track for satellite COSMOS 1408 DEB.

In-orbit conjunctions

A list of the most updated potential collisions computed for object COSMOS 1408 DEB.

Target Orbit TCA Probability of collision Miss distance Type
DELTA 1 DEB SSO 2024-11-15 01:17:45 0.0002144238 317.0 (m) DEBRIS

Associated space launch

Tselina-D satellites provided detailed observation of radio sources detected by the smaller Tselina-O satellites as part of the Tselina ELINT system.

COSMOS 1408 DEB was lifted into orbit during the mission ‘Tsiklon-3 | Tselina-D 38’, on board a Tsiklon-3 space rocket.

The launch took place on Sept. 16, 1982, 4:55 a.m. from 32/2.

For more information about the launch, click the button.

Launch to space Tsiklon-3 | Tselina-D 38
Tsiklon-3 | Tselina-D 38

Agency: N/A

Status: Launch Successful

Launch date: Sept. 16, 1982, 4:55 a.m. UTC

Rocket: Tsiklon-3

Launch pad: 32/2

Location: Plesetsk Cosmodrome, Russian Federation

...

Latest news about this satellite

There are no fresh news available about this satellite. Check back as we update our databases every day.


Newsletter sign-up

Weekly statistics, charts and insights to help you stay on top of the space industry.